Time+06,TemperatureF,Dew PointF,Humidity,Sea Level PressureIn,VisibilityMPH,Wind Direction,Wind SpeedMPH,Gust SpeedMPH,PrecipitationIn,Events,Conditions,WindDirDegrees,DateUTC
12:00 AM,42.8,26.6,53,29.89,3.7,ENE,11.2,-,N/A,,Overcast,60,2013-02-17 18:00:00
12:30 AM,42.8,26.6,53,29.89,3.7,ENE,8.9,-,N/A,,Overcast,70,2013-02-17 18:30:00
1:00 AM,42.8,26.6,53,29.89,3.7,ENE,8.9,-,N/A,,Overcast,70,2013-02-17 19:00:00
1:30 AM,42.8,24.8,49,29.89,3.7,ENE,8.9,-,N/A,,Overcast,60,2013-02-17 19:30:00
2:00 AM,42.8,24.8,49,29.89,4.3,NE,6.7,-,N/A,,Overcast,50,2013-02-17 20:00:00
2:30 AM,42.8,23.0,46,29.89,4.3,NE,8.9,-,N/A,,Overcast,50,2013-02-17 20:30:00
3:00 AM,42.8,23.0,46,29.89,4.3,ENE,11.2,-,N/A,,Overcast,60,2013-02-17 21:00:00
3:30 AM,42.8,23.0,46,29.89,4.3,ENE,11.2,-,N/A,,Overcast,70,2013-02-17 21:30:00
4:00 AM,42.8,21.2,42,29.89,4.3,ENE,8.9,-,N/A,,Overcast,70,2013-02-17 22:00:00
4:30 AM,42.8,23.0,46,29.92,4.3,East,6.7,-,N/A,,Overcast,80,2013-02-17 22:30:00
5:00 AM,42.8,21.2,42,29.92,5.0,ENE,6.7,-,N/A,,Overcast,60,2013-02-17 23:00:00
5:30 AM,42.8,23.0,46,29.92,5.0,NE,4.5,-,N/A,,Overcast,40,2013-02-17 23:30:00
6:00 AM,41.0,24.8,53,29.95,4.3,NNW,8.9,-,N/A,,Overcast,340,2013-02-18 00:00:00
6:30 AM,41.0,26.6,57,29.95,3.7,North,4.5,-,N/A,,Overcast,10,2013-02-18 00:30:00
7:00 AM,41.0,26.6,57,29.98,3.7,ENE,4.5,-,N/A,,Overcast,60,2013-02-18 01:00:00
7:30 AM,39.2,26.6,61,29.98,3.7,East,4.5,-,N/A,,Overcast,80,2013-02-18 01:30:00
8:00 AM,39.2,28.4,65,29.98,3.1,SE,4.5,-,N/A,,Overcast,140,2013-02-18 02:00:00
8:30 AM,37.4,28.4,70,30.01,3.1,SW,4.5,-,N/A,,Overcast,220,2013-02-18 02:30:00
9:00 AM,39.2,24.8,56,30.01,3.1,SE,4.5,-,N/A,,Overcast,140,2013-02-18 03:00:00
9:30 AM,39.2,26.6,61,30.04,3.1,Calm,Calm,-,N/A,,Overcast,0,2013-02-18 03:30:00
10:00 AM,41.0,24.8,53,30.01,3.1,ESE,4.5,-,N/A,,Overcast,120,2013-02-18 04:00:00
10:30 AM,42.8,24.8,49,30.01,3.1,Calm,Calm,-,N/A,,Overcast,0,2013-02-18 04:30:00
11:00 AM,42.8,23.0,46,30.04,3.7,North,2.2,-,N/A,,Overcast,350,2013-02-18 05:00:00
11:30 AM,42.8,26.6,53,30.04,-9999.0,NW,2.2,-,N/A,,Overcast,320,2013-02-18 05:30:00
12:00 PM,44.6,24.8,46,30.04,3.1,Calm,Calm,-,N/A,,Overcast,0,2013-02-18 06:00:00
12:30 PM,44.6,24.8,46,30.06,3.1,ESE,4.5,-,N/A,,Overcast,120,2013-02-18 06:30:00
1:00 PM,44.6,24.8,46,30.06,3.1,SE,6.7,-,N/A,,Overcast,140,2013-02-18 07:00:00
1:30 PM,46.4,21.2,37,30.06,4.3,SE,2.2,-,N/A,,Overcast,130,2013-02-18 07:30:00
2:00 PM,48.2,21.2,34,30.06,5.0,Calm,Calm,-,N/A,,Overcast,0,2013-02-18 08:00:00
2:30 PM,48.2,19.4,32,30.06,4.3,NNE,2.2,-,N/A,,Overcast,30,2013-02-18 08:30:00
3:00 PM,50.0,21.2,32,30.04,4.3,Calm,Calm,-,N/A,,Mostly Cloudy,0,2013-02-18 09:00:00
3:30 PM,48.2,24.8,40,30.04,4.3,East,6.7,-,N/A,,Mostly Cloudy,80,2013-02-18 09:30:00
4:00 PM,46.4,23.0,40,30.06,4.3,ENE,11.2,-,N/A,,Partly Cloudy,70,2013-02-18 10:00:00
4:30 PM,46.4,21.2,37,30.06,5.0,ENE,15.7,-,N/A,,Partly Cloudy,70,2013-02-18 10:30:00
5:00 PM,46.4,21.2,37,30.06,4.3,East,15.7,22.4,N/A,,Overcast,80,2013-02-18 11:00:00
5:30 PM,46.4,19.4,34,30.06,5.0,East,17.9,24.6,N/A,,Overcast,80,2013-02-18 11:30:00
6:00 PM,46.4,26.6,46,30.06,3.7,East,17.9,24.6,N/A,,Overcast,80,2013-02-18 12:00:00
6:30 PM,44.6,24.8,46,30.06,-9999.0,East,17.9,24.6,N/A,,Overcast,80,2013-02-18 12:30:00
7:00 PM,44.6,26.6,49,30.09,3.1,East,17.9,-,N/A,,Overcast,80,2013-02-18 13:00:00
7:30 PM,42.8,26.6,53,30.09,4.3,East,17.9,-,N/A,,Overcast,80,2013-02-18 13:30:00
8:00 PM,42.8,28.4,57,30.09,4.3,East,17.9,-,N/A,,Overcast,80,2013-02-18 14:00:00
8:30 PM,44.6,23.0,43,30.09,5.0,East,22.4,31.3,N/A,,Overcast,80,2013-02-18 14:30:00
9:00 PM,42.8,26.6,53,30.12,4.3,East,20.1,29.1,N/A,,Overcast,80,2013-02-18 15:00:00
9:30 PM,42.8,24.8,49,30.12,5.0,East,20.1,29.1,N/A,,Overcast,80,2013-02-18 15:30:00
10:00 PM,42.8,23.0,46,30.12,6.2,East,20.1,29.1,N/A,,Overcast,80,2013-02-18 16:00:00
10:30 PM,41.0,24.8,53,30.12,6.2,ENE,15.7,24.6,N/A,,Overcast,70,2013-02-18 16:30:00
11:00 PM,41.0,26.6,57,30.12,6.2,East,15.7,22.4,N/A,,Overcast,80,2013-02-18 17:00:00
11:30 PM,41.0,26.6,57,30.12,6.2,East,17.9,24.6,N/A,,Mostly Cloudy,90,2013-02-18 17:30:00